Погода в Морозовице

Россия / Вологодская область     60°42′39″N   46°17′46″E
темп.,
°C
ветер,
м/с
пор.,
м/с
влажн.,
%
обл.,
%
осадки,
мм/ч
давл.,
гПа
погр.,
м
9 мая, вс
вс900:00+8вюв3107495 0.0 1012237
03:00+7юв41377100 0.0 1010345
06:00+9юв51683100 0.0 1008797
09:00+13ююв61376100 0.3 1008934
12:00+12ю51290100 2.2 1008964
15:00+11ююв51293100 4.9 1009744
18:00+10ююз2698100 2.4 1010256
21:00+9ююз1299100 8.7 101162
10 мая, пн
пн1000:00+6сз4994100 3.1 1014454
03:00+5сз4894100 7.1 1017684
06:00+5сз4889100 0.4 1020807
09:00+7ссз4874100 0.4 1023944
12:00+11ссз35485 0.0 10251633
15:00+13сз24395 0.0 10261918
18:00+12зсз23505 0.0 1027178
21:00+7юз22695 0.0 102816
11 мая, вт
вт1100:00+5юз227551 0.0 103035
03:00+5ююз2578100 0.0 103099
06:00+7ююз3972100 0.0 1031281
09:00+10ююз4106510 0.0 1031442
12:00+15юз5849100 0.0 1030938
15:00+19зюз5748100 0.0 10291337
18:00+16юз386499 0.0 1029467
21:00+12юз25856 0.0 103076
12 мая, ср
ср1200:00+10юз299198 0.0 1031159
03:00+9юз269430 0.0 1032118
06:00+12зюз2781100 0.0 1032211
09:00+17зюз3458100 0.0 1031559
12:00+21зюз344436 0.0 10311174
15:00+23зюз34402 0.0 10301502
18:00+21юз23556 0.0 102989
21:00+15юз22775 0.0 102914
13 мая, чт
чт1300:00+13юз22840 0.0 103014
03:00+11юз12875 0.0 103011
06:00+15ююз127330 0.0 1030138
09:00+20ю235223 0.0 1029687
12:00+23ю33395 0.0 10281507
15:00+24ю34360 0.0 10261721
18:00+22ю244826 0.0 1025178
21:00+16ю227096 0.0 102519